• In Hungary
  • List of Countries
  • For 7 days
  • Water Temperature
  • Satellite Maps
  • Weather Map
  • News
  • Weather Widgets
  • user-avatar
    Login

    Hourly Weather Minlino

    Today, 16 July, Monday

    Time Temperature Precipitation Wind Pressure Humidity
    00:00 +20°C° 0 mm 3 mps 748 mmHg 88%
    01:00 +19°C° 0 mm 3 mps 748 mmHg 89%
    02:00 +19°C° 0 mm 3 mps 749 mmHg 90%
    03:00 +18°C° 0 mm 3 mps 749 mmHg 91%
    04:00 +19°C° 0 mm 3 mps 749 mmHg 93%
    05:00 +20°C° 0 mm 3 mps 749 mmHg 91%
    06:00 +21°C° 0 mm 3 mps 749 mmHg 89%
    07:00 +22°C° 0 mm 3 mps 749 mmHg 86%
    08:00 +24°C° 0.1 mm 3 mps 749 mmHg 81%
    09:00 +26°C° 0.1 mm 3 mps 749 mmHg 76%
    10:00 +27°C° 0 mm 3 mps 749 mmHg 71%
    11:00 +27°C° 0.1 mm 3 mps 749 mmHg 68%
    12:00 +28°C° 0.1 mm 3 mps 749 mmHg 64%
    13:00 +29°C° 0.1 mm 3 mps 749 mmHg 61%
    14:00 +29°C° 0.1 mm 3 mps 749 mmHg 62%
    15:00 +29°C° 0.1 mm 3 mps 749 mmHg 62%
    16:00 +29°C° 0.1 mm 2 mps 749 mmHg 62%
    17:00 +29°C° 0.1 mm 2 mps 749 mmHg 66%
    18:00 +28°C° 0.1 mm 1 mps 749 mmHg 70%
    19:00 +27°C° 0.1 mm 1 mps 749 mmHg 73%
    20:00 +26°C° 0 mm 1 mps 749 mmHg 76%
    21:00 +24°C° 0 mm 1 mps 749 mmHg 79%
    22:00 +21°C° 0 mm 2 mps 749 mmHg 82%
    23:00 +21°C° 0 mm 2 mps 749 mmHg 83%

    Tomorrow, 17 July, Tuesday

    Time Temperature Precipitation Wind Pressure Humidity
    00:00 +20°C° 0 mm 2 mps 749 mmHg 85%
    01:00 +19°C° 0 mm 3 mps 749 mmHg 87%
    02:00 +19°C° 0 mm 3 mps 749 mmHg 87%
    03:00 +18°C° 0 mm 3 mps 749 mmHg 87%
    04:00 +18°C° 0 mm 2 mps 749 mmHg 87%
    05:00 +19°C° 0 mm 3 mps 749 mmHg 86%
    06:00 +20°C° 0 mm 3 mps 749 mmHg 84%
    07:00 +20°C° 0 mm 3 mps 749 mmHg 83%
    08:00 +22°C° 0 mm 3 mps 749 mmHg 79%
    09:00 +24°C° 0 mm 3 mps 749 mmHg 74%
    10:00 +25°C° 0 mm 3 mps 749 mmHg 70%
    11:00 +26°C° 0 mm 3 mps 749 mmHg 68%
    12:00 +26°C° 0 mm 3 mps 748 mmHg 65%
    13:00 +27°C° 0 mm 3 mps 748 mmHg 63%
    14:00 +27°C° 0 mm 3 mps 748 mmHg 65%
    15:00 +27°C° 0 mm 3 mps 748 mmHg 66%
    16:00 +27°C° 0 mm 2 mps 748 mmHg 68%
    17:00 +26°C° 0 mm 2 mps 748 mmHg 71%
    18:00 +25°C° 0 mm 2 mps 747 mmHg 74%
    19:00 +24°C° 0 mm 2 mps 747 mmHg 76%
    20:00 +24°C° 0 mm 2 mps 747 mmHg 76%
    21:00 +23°C° 0 mm 2 mps 747 mmHg 75%
    22:00 +21°C° 0 mm 3 mps 747 mmHg 74%
    23:00 +21°C° 0.2 mm 3 mps 747 mmHg 78%

    Day after tomorrow, 18 July, Wednesday

    Time Temperature Precipitation Wind Pressure Humidity
    00:00 +21°C° 0.2 mm 2 mps 747 mmHg 81%
    01:00 +20°C° 0.2 mm 2 mps 747 mmHg 85%
    02:00 +20°C° 0.6 mm 2 mps 747 mmHg 88%
    03:00 +20°C° 0.6 mm 2 mps 747 mmHg 92%
    04:00 +20°C° 0.6 mm 2 mps 747 mmHg 95%
    05:00 +20°C° 0.4 mm 3 mps 747 mmHg 94%
    06:00 +20°C° 0.4 mm 3 mps 747 mmHg 94%
    07:00 +20°C° 0.4 mm 4 mps 747 mmHg 93%
    08:00 +21°C° 0.3 mm 4 mps 747 mmHg 91%
    09:00 +21°C° 0.3 mm 4 mps 747 mmHg 88%
    10:00 +22°C° 0.3 mm 4 mps 747 mmHg 86%
    11:00 +23°C° 0.2 mm 4 mps 746 mmHg 82%
    12:00 +25°C° 0.2 mm 4 mps 746 mmHg 79%
    13:00 +26°C° 0.2 mm 4 mps 746 mmHg 76%
    14:00 +27°C° 0.5 mm 4 mps 746 mmHg 75%
    15:00 +27°C° 0.5 mm 4 mps 746 mmHg 75%
    16:00 +28°C° 0.5 mm 3 mps 746 mmHg 75%
    17:00 +27°C° 0.5 mm 3 mps 746 mmHg 78%
    18:00 +26°C° 0.5 mm 2 mps 746 mmHg 82%
    19:00 +25°C° 0.5 mm 2 mps 747 mmHg 85%
    20:00 +24°C° 0.2 mm 3 mps 747 mmHg 88%
    21:00 +22°C° 0.2 mm 3 mps 747 mmHg 90%
    22:00 +21°C° 0.2 mm 4 mps 747 mmHg 93%
    23:00 +21°C° 0.3 mm 3 mps 747 mmHg 94%

    19 July, Thursday

    Time Temperature Precipitation Wind Pressure Humidity
    00:00 +20°C° 0.3 mm 3 mps 747 mmHg 95%
    01:00 +19°C° 0.3 mm 3 mps 747 mmHg 96%
    02:00 +19°C° 0.2 mm 3 mps 747 mmHg 96%
    03:00 +18°C° 0.2 mm 3 mps 747 mmHg 96%
    04:00 +18°C° 0.2 mm 3 mps 747 mmHg 96%
    05:00 +19°C° 0.1 mm 3 mps 747 mmHg 94%
    06:00 +20°C° 0.1 mm 3 mps 748 mmHg 92%
    07:00 +20°C° 0.1 mm 3 mps 748 mmHg 91%
    08:00 +22°C° 0 mm 3 mps 748 mmHg 86%
    09:00 +24°C° 0 mm 3 mps 748 mmHg 81%
    10:00 +25°C° 0 mm 3 mps 748 mmHg 76%
    11:00 +26°C° 0 mm 3 mps 748 mmHg 73%
    12:00 +27°C° 0 mm 3 mps 748 mmHg 70%
    13:00 +28°C° 0 mm 3 mps 748 mmHg 68%
    14:00 +28°C° 0.5 mm 3 mps 748 mmHg 68%
    15:00 +28°C° 0.5 mm 3 mps 748 mmHg 69%
    16:00 +28°C° 0.5 mm 3 mps 748 mmHg 70%
    17:00 +27°C° 0.4 mm 3 mps 748 mmHg 75%
    18:00 +26°C° 0.4 mm 3 mps 748 mmHg 80%
    19:00 +25°C° 0.4 mm 3 mps 748 mmHg 85%
    20:00 +22°C° 0 mm 3 mps 748 mmHg 88%
    21:00 +21°C° 0 mm 3 mps 748 mmHg 91%
    22:00 +19°C° 0 mm 3 mps 749 mmHg 94%
    23:00 +19°C° 0 mm 3 mps 749 mmHg 94%

    20 July, Friday

    Time Temperature Precipitation Wind Pressure Humidity
    00:00 +18°C° 0 mm 3 mps 749 mmHg 95%
    01:00 +18°C° 0 mm 3 mps 748 mmHg 96%
    02:00 +17°C° 0 mm 3 mps 749 mmHg 96%
    03:00 +17°C° 0 mm 3 mps 749 mmHg 96%
    04:00 +17°C° 0 mm 3 mps 749 mmHg 95%
    05:00 +18°C° 0 mm 3 mps 749 mmHg 93%
    06:00 +18°C° 0 mm 4 mps 749 mmHg 91%
    07:00 +19°C° 0 mm 4 mps 749 mmHg 89%
    08:00 +21°C° 0 mm 4 mps 749 mmHg 86%
    09:00 +22°C° 0 mm 4 mps 749 mmHg 82%
    10:00 +23°C° 0 mm 4 mps 749 mmHg 79%
    11:00 +25°C° 0.1 mm 4 mps 749 mmHg 76%
    12:00 +26°C° 0.1 mm 4 mps 749 mmHg 73%
    13:00 +27°C° 0.1 mm 5 mps 749 mmHg 70%
    14:00 +27°C° 0.5 mm 4 mps 749 mmHg 71%
    15:00 +27°C° 0.5 mm 4 mps 749 mmHg 71%
    16:00 +28°C° 0.5 mm 4 mps 749 mmHg 72%
    17:00 +27°C° 0.4 mm 4 mps 749 mmHg 75%
    18:00 +26°C° 0.4 mm 3 mps 749 mmHg 79%
    19:00 +25°C° 0.4 mm 3 mps 749 mmHg 83%
    20:00 +24°C° 0 mm 3 mps 749 mmHg 85%
    21:00 +21°C° 0 mm 3 mps 749 mmHg 87%
    22:00 +20°C° 0 mm 3 mps 749 mmHg 90%
    23:00 +20°C° 0 mm 4 mps 750 mmHg 90%

    21 July, Saturday

    Time Temperature Precipitation Wind Pressure Humidity
    00:00 +19°C° 0 mm 4 mps 750 mmHg 90%
    01:00 +19°C° 0 mm 4 mps 750 mmHg 90%
    02:00 +19°C° 0 mm 4 mps 750 mmHg 89%
    03:00 +18°C° 0 mm 4 mps 750 mmHg 88%
    04:00 +18°C° 0 mm 4 mps 750 mmHg 88%
    05:00 +17°C° 0 mm 5 mps 751 mmHg 85%
    06:00 +19°C° 0 mm 5 mps 751 mmHg 83%
    07:00 +19°C° 0 mm 5 mps 751 mmHg 81%
    08:00 +21°C° 0 mm 5 mps 751 mmHg 76%
    09:00 +22°C° 0 mm 6 mps 751 mmHg 71%
    10:00 +23°C° 0 mm 6 mps 751 mmHg 66%
    11:00 +24°C° 0 mm 6 mps 751 mmHg 63%
    12:00 +26°C° 0 mm 6 mps 751 mmHg 60%
    13:00 +26°C° 0 mm 6 mps 751 mmHg 57%
    14:00 +27°C° 0 mm 5 mps 751 mmHg 59%
    15:00 +27°C° 0 mm 5 mps 751 mmHg 60%
    16:00 +27°C° 0 mm 4 mps 751 mmHg 61%
    17:00 +26°C° 0 mm 4 mps 751 mmHg 65%
    18:00 +25°C° 0 mm 4 mps 752 mmHg 68%
    19:00 +23°C° 0 mm 4 mps 752 mmHg 72%
    20:00 +22°C° 0 mm 4 mps 752 mmHg 72%
    21:00 +20°C° 0 mm 5 mps 752 mmHg 72%
    22:00 +19°C° 0 mm 5 mps 752 mmHg 71%
    23:00 +19°C° 0 mm 5 mps 753 mmHg 72%
    Show more